"Pseudo-MPEC" for P10XLLf

Created 2020 Mar 31 9:07:07 UT using Find_Orb

Click here for an explanation of pseudo-MPECs

 
 Astrometry: 
     P10XLLf  C2020 03 21SsE5SSk@(#(Astrometry29WK*CfMO7JWLD[x3h+redacted;4;+F51
     P10XLLf  C2020 03 21Io^nclicki@qrRd)WnxAV5GNJ(L8q2Lf=hereO[UCKunw'3^',\#F51
     P10XLLf  C2020 03 21L%wsSG!Y9rke9b:t=7yl`vMsV2T=HW3t60mi2o#KAH7Z1+/(wbu7F51
     P10XLLf ^C2020 03 22.54137916 04 36.535-21 17 17.11   ~3MK7 21.42GVNEOCP568
     P10XLLf ^C2020 03 22.54232616 04 36.571-21 17 20.30   ~3MK7 21.36GVNEOCP568
     P10XLLf ^C2020 03 22.54328316 04 36.611-21 17 23.54   ~3MK7 21.26GVNEOCP568
     P10XLLf  C2020 03 229Hdo4f]PWfd%0vN3HIfor[9^FxmOO/JfHL*r;I8xy8/?WhOSU@xHF51
     P10XLLf  C2020 03 22$DGKMPZQexplanation=)XG!sJ9K#,4C=#Lpsi9AN=?uhmLIxC,VF51

Station data:
(568) Mauna Kea  (N19.826116 W155.472200)  US/Hawaii.
(F51) Pan-STARRS 1, Haleakala  (N20.707235 W156.255910)  US/Hawaii.
   Observers N. Primak, A. Schultz, S. Watters, J. Thiel, T. Goggia. Measurer
   PS1 Science Consortium. 1.8-m Ritchey-Chrétien + CCD.

Orbital elements:  P10XLLf
   Perihelion 2020 Mar 2.305111 +/- 54.4 TT =  7:19:21 (JD 2458910.805111)
Epoch 2020 Mar 22.0 TT = JDT 2458930.5   Earth MOID: 0.3204   Ju: 0.9865
M   4.46998105 +/- 28               (J2000 ecliptic)          AutoNEOCP
n   0.22696147 +/- 0.154            Peri.  164.26600 +/- 48
a   2.66175424 +/- 1.2              Node    21.78687 +/- 2.6
e   0.5075830 +/- 0.162             Incl.   25.47968 +/- 7
P   4.34                   H 21.0   G  0.15   U 11.5  SR
q 1.31069299 +/- 0.168    Q 4.01281548 +/- 1.58
From 8 observations 2020 Mar. 21-22 (23.5 hr); mean residual 0".20
Residuals in arcseconds: 
200321 F51  .29+  .22-    200322 568  .06-  .28+    200322 F51  .04+  .33-    
200321 F51  .25-  .06+    200322 568  .08-  .23+    200322 F51  .13+  .31-    
200321 F51  .04-  .14+    200322 568  .04-  .16+    

Ephemerides (geocentric):
Date (UTC) HH   RA              Dec         delta   r     elong  mag " sig PA
---- -- -- --  -------------   -----------  ------ ------ -----  --- ---- ---
2020 03 31 09  16 09 10.178   -29 36 13.86  .49970 1.3468 124.5 21.7 2171  79
2020 03 31 10  16 09 10.789   -29 38 37.56  .49963 1.3469 124.6 21.7 2193  79
2020 03 31 11  16 09 11.393   -29 41 01.27  .49956 1.3470 124.6 21.7 2214  79
2020 03 31 12  16 09 11.990   -29 43 24.99  .49950 1.3471 124.6 21.7 2236  79
2020 03 31 13  16 09 12.580   -29 45 48.72  .49943 1.3472 124.6 21.7 2258  79
2020 03 31 14  16 09 13.163   -29 48 12.45  .49936 1.3473 124.7 21.7 2280  79
2020 03 31 15  16 09 13.739   -29 50 36.20  .49930 1.3474 124.7 21.7 2302  79
2020 03 31 16  16 09 14.309   -29 52 59.95  .49923 1.3475 124.7 21.7 2324  79
2020 03 31 17  16 09 14.871   -29 55 23.71  .49917 1.3476 124.7 21.7 2346  79
2020 03 31 18  16 09 15.426   -29 57 47.47  .49910 1.3477 124.8 21.7 2369  79
2020 03 31 19  16 09 15.975   -30 00 11.25  .49904 1.3478 124.8 21.7 2391  79
2020 03 31 20  16 09 16.516   -30 02 35.02  .49897 1.3479 124.8 21.7 2414  79
2020 03 31 21  16 09 17.050   -30 04 58.81  .49891 1.3480 124.9 21.7 2437  79
2020 03 31 22  16 09 17.577   -30 07 22.60  .49885 1.3481 124.9 21.7 2459  79
2020 03 31 23  16 09 18.098   -30 09 46.40  .49878 1.3482 124.9 21.7 2482  79
2020 04 01 00  16 09 18.611   -30 12 10.20  .49872 1.3483 124.9 21.7 2506  79
2020 04 01 01  16 09 19.117   -30 14 34.01  .49866 1.3484 125.0 21.7 2529  79
2020 04 01 02  16 09 19.616   -30 16 57.83  .49860 1.3485 125.0 21.7 2552  79
2020 04 01 03  16 09 20.108   -30 19 21.65  .49853 1.3486 125.0 21.7 2576  79
2020 04 01 04  16 09 20.593   -30 21 45.47  .49847 1.3487 125.0 21.7 2599  79
2020 04 01 05  16 09 21.071   -30 24 09.30  .49841 1.3488 125.1 21.7 2623  79
2020 04 01 06  16 09 21.542   -30 26 33.13  .49835 1.3490 125.1 21.7 2647  79
2020 04 01 07  16 09 22.006   -30 28 56.97  .49829 1.3491 125.1 21.7 2671  79
2020 04 01 08  16 09 22.463   -30 31 20.81  .49823 1.3492 125.1 21.7 2695  79
2020 04 01 09  16 09 22.913   -30 33 44.65  .49817 1.3493 125.2 21.7 2720  79
2020 04 01 10  16 09 23.355   -30 36 08.50  .49811 1.3494 125.2 21.7 2744  79
2020 04 01 11  16 09 23.791   -30 38 32.35  .49805 1.3495 125.2 21.7 2768  79
2020 04 01 12  16 09 24.219   -30 40 56.21  .49799 1.3496 125.3 21.7 2793  79
2020 04 01 13  16 09 24.640   -30 43 20.06  .49793 1.3497 125.3 21.7 2818  79
2020 04 01 14  16 09 25.054   -30 45 43.92  .49787 1.3498 125.3 21.7 2843  79
2020 04 01 15  16 09 25.461   -30 48 07.79  .49782 1.3499 125.3 21.7 2868  80
2020 04 01 16  16 09 25.861   -30 50 31.65  .49776 1.3500 125.4 21.7 2893  80
2020 04 01 17  16 09 26.253   -30 52 55.51  .49770 1.3501 125.4 21.7 2918  80
2020 04 01 18  16 09 26.639   -30 55 19.38  .49764 1.3502 125.4 21.7 2944  80
2020 04 01 19  16 09 27.017   -30 57 43.25  .49759 1.3503 125.4 21.6 2969  80
2020 04 01 20  16 09 27.388   -31 00 07.12  .49753 1.3504 125.5 21.6 2995  80
2020 04 01 21  16 09 27.752   -31 02 30.99  .49747 1.3505 125.5 21.6 3021  80
2020 04 01 22  16 09 28.109   -31 04 54.86  .49742 1.3506 125.5 21.6 3047  80
2020 04 01 23  16 09 28.458   -31 07 18.73  .49736 1.3507 125.5 21.6 3073  80
2020 04 02 00  16 09 28.800   -31 09 42.61  .49731 1.3508 125.6 21.6 3099  80
2020 04 02 01  16 09 29.136   -31 12 06.48  .49725 1.3510 125.6 21.6 3125  80
2020 04 02 02  16 09 29.463   -31 14 30.35  .49720 1.3511 125.6 21.6 3152  80
2020 04 02 03  16 09 29.784   -31 16 54.22  .49714 1.3512 125.7 21.6 3178  80
2020 04 02 04  16 09 30.097   -31 19 18.09  .49709 1.3513 125.7 21.6 3205  80
2020 04 02 05  16 09 30.403   -31 21 41.96  .49703 1.3514 125.7 21.6 3232  80
2020 04 02 06  16 09 30.702   -31 24 05.83  .49698 1.3515 125.7 21.6 3259  80
2020 04 02 07  16 09 30.994   -31 26 29.69  .49693 1.3516 125.8 21.6 3286  80
2020 04 02 08  16 09 31.278   -31 28 53.56  .49688 1.3517 125.8 21.6 3313  80